Tracking 19717 objects as of 24-Jun-2019
HD Live streaming from Space Station
objects crossing your sky now

DELTA 1 DEB

Track DELTA 1 DEB now!
10-day predictions


NORAD ID: 7134
Int'l Code: 1973-086CY
Perigee: 1,440.7 km
Apogee: 1,482.3 km
Inclination: 101.8 °
Period: 115.0 minutes
Semi major axis: 7832 km
RCS: 0.1006 m2 (medium)
Launch date: November 6, 1973
Source: United States (US)
Launch site: AIR FORCE WESTERN TEST RANGE (AFWTR)

Note: This is SATELLITE DEBRIS
aabbcc
Your satellite tracking list
Your tracking list is empty




NASA's NSSDC Master Catalog

Two Line Element Set (TLE):
1  7134U 73086CY  19174.96583470 -.00000259 +00000-0 -13580-2 0  9990
2  7134 101.8242 285.7082 0026579 146.4306 328.1807 12.52432574080787
Source of the keplerian elements: AFSPC